,

(GMT )
Al Udeid

Weather History for KQIR - August, 2013

Change the Weather History Date:

Thursday, August 22, 2013

  Actual Average Record
Temperature  
Mean Temperature 97 °F -  
Max Temperature 110 °F - - ()
Min Temperature 84 °F - - ()
Cooling Degree Days 32    
Growing Degree Days 47 (Base 50)    
Moisture  
Dew Point 76 °F    
Average Humidity 59    
Maximum Humidity 86    
Minimum Humidity 19    
Precipitation  
Precipitation 0.00 in - - ()
Sea Level Pressure  
Sea Level Pressure 29.51 in    
Wind  
Wind Speed 3 mph ()    
Max Wind Speed 13 mph    
Max Gust Speed -    
Visibility 6.0 miles    
Events      
Averages and records for this station are not official NWS values.
T = Trace of Precipitation, MM = Missing Value Source: Averaged Metar Reports

Daily Weather History Graph

Daily Weather History Graph

Search for Another Location

Airport or City:

Trip Planner

Search our weather history database for the weather conditions in past years. The results will help you decide how hot, cold, wet, or windy it might be!

Date:

Astronomy

Aug. 22, 2013 Rise Set
Actual Time 5:11 AM +03 6:03 PM +03
Civil Twilight 4:47 AM +03 6:27 PM +03
Nautical Twilight 4:19 AM +03 6:54 PM +03
Astronomical Twilight 3:51 AM +03 7:23 PM +03
Moon 6:51 PM +03 (8/22) 6:19 AM +03 (8/22)
Length of Visible Light 13h 39m
Length of Day
12h 52m
Full, 98% of the Moon is Illuminated
Aug 22
Full
Aug 28
Last Quarter
Sep 5
New
Sep 12
First Quarter
Sep 19
Full

Hourly Weather History & Observations

Time (+03) Temp. Heat Index Dew Point Humidity Pressure Visibility Wind Dir Wind Speed Gust Speed Precip Events Conditions
12:55 AM 87.8 °F 104.9 °F 80.6 °F 79% 29.47 in 6.2 mi Calm Calm - N/A   Clear
1:55 AM 86.2 °F 101.4 °F 80.1 °F 82% 29.47 in 6.2 mi Calm Calm - N/A   Clear
2:55 AM 85.1 °F 98.0 °F 79.2 °F 82% 29.47 in 6.2 mi WNW 4.6 mph - N/A   Clear
3:55 AM 84.4 °F 97.1 °F 79.3 °F 85% 29.47 in 6.2 mi West 4.6 mph - N/A   Clear
4:55 AM 84.0 °F 96.0 °F 79.2 °F 85% 29.49 in 5.6 mi West 3.5 mph - N/A   Haze
5:55 AM 84.7 °F 98.7 °F 80.2 °F 86% 29.51 in 5.0 mi East 3.5 mph - N/A   Haze
6:26 AM 86.0 °F 101.9 °F 80.6 °F 84% 29.52 in - Calm Calm - N/A   Haze
6:48 AM 87.8 °F 104.9 °F 80.6 °F 79% 29.52 in 3.7 mi Calm Calm - N/A   Haze
6:55 AM 87.8 °F 106.2 °F 81.5 °F 81% 29.53 in 5.0 mi Calm Calm - N/A   Haze
7:55 AM 92.5 °F 116.4 °F 82.8 °F 73% 29.53 in 6.2 mi East 3.5 mph - N/A   Clear
8:55 AM 96.4 °F 114.7 °F 79.0 °F 57% 29.54 in 6.2 mi SE 3.5 mph - N/A   Clear
9:55 AM 101.3 °F 108.1 °F 69.1 °F 35% 29.53 in 6.2 mi SE 4.6 mph - N/A   Clear
10:55 AM 105.1 °F 110.1 °F 65.5 °F 28% 29.54 in 6.2 mi East 3.5 mph - N/A   Clear
11:55 AM 107.2 °F 111.6 °F 64.8 °F 25% 29.52 in 6.2 mi Calm Calm - N/A   Clear
12:55 PM 107.4 °F 112.8 °F 66.2 °F 26% 29.50 in 6.2 mi NE 5.8 mph - N/A   Partly Cloudy
1:55 PM 108.9 °F 112.7 °F 63.0 °F 23% 29.49 in 6.2 mi NNE 4.6 mph - N/A   Clear
2:55 PM 110.1 °F 111.3 °F 58.5 °F 19% 29.48 in 6.2 mi Calm Calm - N/A   Clear
3:55 PM 106.0 °F 124.1 °F 77.2 °F 40% 29.48 in 6.2 mi NE 11.5 mph - N/A   Clear
4:55 PM 103.3 °F 122.4 °F 77.9 °F 45% 29.49 in 6.2 mi East 11.5 mph - N/A   Clear
5:55 PM 98.6 °F 116.3 °F 78.4 °F 52% 29.50 in 6.2 mi East 12.7 mph - N/A   Clear
6:55 PM 96.6 °F 113.4 °F 78.3 °F 55% 29.52 in 6.2 mi NE 11.5 mph - N/A   Clear
7:55 PM 95.0 °F 115.8 °F 80.4 °F 63% 29.54 in 6.2 mi NE 10.4 mph - N/A   Clear
8:55 PM 95.0 °F 108.2 °F 75.9 °F 54% 29.56 in 6.2 mi NE 8.1 mph - N/A   Clear
9:55 PM 93.9 °F 110.7 °F 78.4 °F 61% 29.56 in 6.2 mi NE 5.8 mph - N/A   Clear
10:55 PM 93.2 °F 109.5 °F 78.4 °F 62% 29.55 in 6.2 mi East 3.5 mph - N/A   Clear
11:55 PM 89.6 °F 102.2 °F 76.8 °F 66% 29.54 in 6.2 mi Calm Calm - N/A   Clear